Location: Karlsruhe
(49.0131°N, 8.3874°E)
Time: 04:47:48
(UTC+01:00)

Envisat - Visible Passes

Search period start: 25 November 2017 00:00
Search period end: 05 December 2017 00:00
Orbit: 764 x 766 km, 98.2° (Epoch: 24 November)

Date Brightness Start Highest point End Pass type
(mag) Time Alt. Az. Time Alt. Az. Time Alt. Az.
25 Nov 5.2 19:27:55 14° N 19:27:55 14° N 19:28:40 10° N visible
26 Nov 5.1 18:50:50 13° NNE 18:50:50 13° NNE 18:51:26 10° N visible
26 Nov 5.8 20:31:03 10° NNW 20:31:03 10° NNW 20:31:06 10° NNW visible
27 Nov 5.4 19:53:58 13° N 19:53:58 13° N 19:54:25 10° N visible
28 Nov 5.2 19:16:53 13° N 19:16:53 13° N 19:17:26 10° N visible
29 Nov 5.2 18:39:47 11° NNE 18:39:47 11° NNE 18:40:04 10° NNE visible
29 Nov 5.7 20:20:00 10° NNW 20:20:00 10° NNW 20:20:02 10° NNW visible
30 Nov 5.4 19:42:55 12° N 19:42:55 12° N 19:43:15 10° N visible
01 Dec 5.2 19:05:49 12° N 19:05:49 12° N 19:06:10 10° N visible
02 Dec 5.7 20:08:55 10° NNW 20:08:55 10° NNW 20:08:55 10° NNW visible
03 Dec 5.4 19:31:49 11° N 19:31:49 11° N 19:32:03 10° N visible
04 Dec 5.3 18:54:42 11° N 18:54:42 11° N 18:54:52 10° N visible
